• In Hungary
  • List of Countries
  • For 7 days
  • Water Temperature
  • Satellite Maps
  • Weather Map
  • News
  • Weather Widgets
  • user-avatar
    Login

    Hourly Weather Mazancowice

    Today, 24 September, Monday

    Time Temperature Precipitation Wind Pressure Humidity
    00:00 +15°C° 0.4 mm 9 mps 726 mmHg 78%
    01:00 +15°C° 0 mm 6 mps 727 mmHg 83%
    02:00 +12°C° 0.8 mm 7 mps 728 mmHg 83%
    03:00 +10°C° 0.8 mm 8 mps 730 mmHg 83%
    04:00 +6°C° 0.8 mm 9 mps 731 mmHg 83%
    05:00 +6°C° 0.2 mm 8 mps 732 mmHg 83%
    06:00 +6°C° 0.2 mm 7 mps 733 mmHg 83%
    07:00 +7°C° 0 mm 6 mps 735 mmHg 82%
    08:00 +7°C° 0.1 mm 6 mps 736 mmHg 78%
    09:00 +8°C° 0.1 mm 7 mps 736 mmHg 74%
    10:00 +8°C° 0.1 mm 7 mps 737 mmHg 71%
    11:00 +9°C° 0.1 mm 7 mps 738 mmHg 67%
    12:00 +9°C° 0.1 mm 7 mps 738 mmHg 63%
    13:00 +10°C° 0.1 mm 7 mps 739 mmHg 59%
    14:00 +10°C° 0.2 mm 7 mps 739 mmHg 59%
    15:00 +10°C° 0.2 mm 7 mps 739 mmHg 60%
    16:00 +9°C° 0.2 mm 7 mps 739 mmHg 60%
    17:00 +8°C° 0.1 mm 6 mps 739 mmHg 65%
    18:00 +7°C° 0.1 mm 5 mps 740 mmHg 69%
    19:00 +6°C° 0.1 mm 4 mps 740 mmHg 73%
    20:00 +6°C° 0 mm 4 mps 740 mmHg 74%
    21:00 +6°C° 0 mm 4 mps 741 mmHg 75%
    22:00 +5°C° 0 mm 4 mps 742 mmHg 76%
    23:00 +5°C° 0 mm 4 mps 742 mmHg 77%

    Tomorrow, 25 September, Tuesday

    Time Temperature Precipitation Wind Pressure Humidity
    00:00 +5°C° 0 mm 3 mps 742 mmHg 78%
    01:00 +5°C° 0 mm 3 mps 743 mmHg 80%
    02:00 +4°C° 0.1 mm 3 mps 743 mmHg 81%
    03:00 +4°C° 0.1 mm 3 mps 743 mmHg 82%
    04:00 +4°C° 0.1 mm 3 mps 744 mmHg 84%
    05:00 +4°C° 0 mm 3 mps 744 mmHg 83%
    06:00 +4°C° 0 mm 4 mps 745 mmHg 82%
    07:00 +4°C° 0 mm 4 mps 745 mmHg 81%
    08:00 +6°C° 0 mm 4 mps 746 mmHg 76%
    09:00 +7°C° 0 mm 4 mps 746 mmHg 71%
    10:00 +8°C° 0 mm 4 mps 747 mmHg 66%
    11:00 +10°C° 0.1 mm 4 mps 747 mmHg 62%
    12:00 +9°C° 0.1 mm 5 mps 747 mmHg 58%
    13:00 +10°C° 0.1 mm 5 mps 747 mmHg 55%
    14:00 +10°C° 0.1 mm 5 mps 748 mmHg 55%
    15:00 +11°C° 0.1 mm 4 mps 748 mmHg 55%
    16:00 +11°C° 0.1 mm 4 mps 748 mmHg 55%
    17:00 +8°C° 0 mm 4 mps 748 mmHg 58%
    18:00 +8°C° 0 mm 3 mps 749 mmHg 62%
    19:00 +7°C° 0 mm 2 mps 749 mmHg 65%
    20:00 +6°C° 0 mm 2 mps 750 mmHg 66%
    21:00 +7°C° 0 mm 1 mps 750 mmHg 67%
    22:00 +6°C° 0 mm 1 mps 750 mmHg 68%
    23:00 +6°C° 0 mm 1 mps 751 mmHg 70%

    Day after tomorrow, 26 September, Wednesday

    Time Temperature Precipitation Wind Pressure Humidity
    00:00 +5°C° 0 mm 1 mps 751 mmHg 71%
    01:00 +5°C° 0 mm 1 mps 751 mmHg 72%
    02:00 +5°C° 0 mm 1 mps 751 mmHg 73%
    03:00 +5°C° 0 mm 1 mps 751 mmHg 74%
    04:00 +4°C° 0 mm 1 mps 751 mmHg 75%
    05:00 +5°C° 0 mm 1 mps 751 mmHg 72%
    06:00 +6°C° 0 mm 1 mps 751 mmHg 70%
    07:00 +6°C° 0 mm 1 mps 751 mmHg 68%
    08:00 +9°C° 0 mm 1 mps 751 mmHg 59%
    09:00 +10°C° 0 mm 2 mps 751 mmHg 51%
    10:00 +13°C° 0 mm 2 mps 751 mmHg 42%
    11:00 +14°C° 0 mm 2 mps 750 mmHg 40%
    12:00 +13°C° 0 mm 3 mps 750 mmHg 38%
    13:00 +14°C° 0 mm 3 mps 749 mmHg 36%
    14:00 +14°C° 0 mm 3 mps 749 mmHg 39%
    15:00 +14°C° 0 mm 3 mps 748 mmHg 42%
    16:00 +13°C° 0 mm 3 mps 747 mmHg 44%
    17:00 +12°C° 0 mm 3 mps 747 mmHg 49%
    18:00 +11°C° 0 mm 3 mps 747 mmHg 53%
    19:00 +9°C° 0 mm 3 mps 747 mmHg 57%
    20:00 +9°C° 0 mm 3 mps 747 mmHg 57%
    21:00 +9°C° 0 mm 3 mps 747 mmHg 58%
    22:00 +8°C° 0 mm 3 mps 747 mmHg 58%
    23:00 +8°C° 0 mm 3 mps 747 mmHg 58%

    27 September, Thursday

    Time Temperature Precipitation Wind Pressure Humidity
    00:00 +8°C° 0 mm 3 mps 747 mmHg 58%
    01:00 +8°C° 0 mm 3 mps 747 mmHg 58%
    02:00 +7°C° 0 mm 3 mps 746 mmHg 58%
    03:00 +7°C° 0 mm 3 mps 746 mmHg 58%
    04:00 +7°C° 0 mm 3 mps 746 mmHg 57%
    05:00 +8°C° 0 mm 3 mps 746 mmHg 57%
    06:00 +9°C° 0 mm 3 mps 745 mmHg 56%
    07:00 +9°C° 0 mm 3 mps 745 mmHg 55%
    08:00 +12°C° 0 mm 3 mps 745 mmHg 50%
    09:00 +14°C° 0 mm 3 mps 745 mmHg 46%
    10:00 +18°C° 0 mm 3 mps 745 mmHg 41%
    11:00 +19°C° 0 mm 3 mps 745 mmHg 42%
    12:00 +20°C° 0 mm 3 mps 745 mmHg 42%
    13:00 +21°C° 0 mm 3 mps 744 mmHg 43%
    14:00 +21°C° 0 mm 3 mps 744 mmHg 46%
    15:00 +20°C° 0 mm 3 mps 744 mmHg 50%
    16:00 +20°C° 0 mm 2 mps 743 mmHg 53%
    17:00 +18°C° 0 mm 2 mps 743 mmHg 58%
    18:00 +17°C° 0 mm 2 mps 743 mmHg 63%
    19:00 +15°C° 0 mm 2 mps 743 mmHg 68%
    20:00 +14°C° 0 mm 2 mps 743 mmHg 68%
    21:00 +14°C° 0 mm 2 mps 743 mmHg 69%
    22:00 +14°C° 0 mm 2 mps 742 mmHg 69%
    23:00 +13°C° 0 mm 2 mps 742 mmHg 70%

    28 September, Friday

    Time Temperature Precipitation Wind Pressure Humidity
    00:00 +13°C° 0 mm 2 mps 742 mmHg 71%
    01:00 +13°C° 0 mm 2 mps 741 mmHg 72%
    02:00 +13°C° 0 mm 2 mps 741 mmHg 73%
    03:00 +12°C° 0 mm 2 mps 741 mmHg 74%
    04:00 +12°C° 0 mm 2 mps 740 mmHg 74%
    05:00 +13°C° 0 mm 2 mps 740 mmHg 73%
    06:00 +13°C° 0 mm 2 mps 740 mmHg 71%
    07:00 +14°C° 0 mm 2 mps 740 mmHg 70%
    08:00 +16°C° 0 mm 2 mps 740 mmHg 62%
    09:00 +18°C° 0 mm 2 mps 740 mmHg 54%
    10:00 +20°C° 0 mm 3 mps 740 mmHg 46%
    11:00 +21°C° 0 mm 3 mps 739 mmHg 43%
    12:00 +22°C° 0 mm 3 mps 739 mmHg 40%
    13:00 +22°C° 0 mm 3 mps 738 mmHg 37%
    14:00 +22°C° 0 mm 3 mps 738 mmHg 40%
    15:00 +21°C° 0 mm 2 mps 738 mmHg 42%
    16:00 +21°C° 0 mm 2 mps 737 mmHg 45%
    17:00 +20°C° 0 mm 1 mps 737 mmHg 51%
    18:00 +18°C° 0 mm 1 mps 737 mmHg 57%
    19:00 +14°C° 0 mm 0 mps 737 mmHg 62%
    20:00 +13°C° 0 mm 0 mps 737 mmHg 65%
    21:00 +13°C° 0 mm 0 mps 737 mmHg 69%
    22:00 +12°C° 0 mm 0 mps 737 mmHg 72%
    23:00 +13°C° 0 mm 1 mps 737 mmHg 75%

    29 September, Saturday

    Time Temperature Precipitation Wind Pressure Humidity
    00:00 +12°C° 0 mm 1 mps 737 mmHg 77%
    01:00 +12°C° 0 mm 1 mps 737 mmHg 80%
    02:00 +12°C° 0.2 mm 1 mps 738 mmHg 83%
    03:00 +12°C° 0.2 mm 2 mps 738 mmHg 86%
    04:00 +12°C° 0.2 mm 2 mps 738 mmHg 89%
    05:00 +12°C° 0.4 mm 2 mps 738 mmHg 90%
    06:00 +11°C° 0.4 mm 3 mps 738 mmHg 91%
    07:00 +11°C° 0.4 mm 3 mps 739 mmHg 91%
    08:00 +11°C° 0.1 mm 3 mps 739 mmHg 86%
    09:00 +12°C° 0.1 mm 3 mps 740 mmHg 82%
    10:00 +12°C° 0.1 mm 3 mps 740 mmHg 77%
    11:00 +12°C° 0 mm 3 mps 740 mmHg 71%
    12:00 +13°C° 0 mm 3 mps 741 mmHg 66%
    13:00 +13°C° 0 mm 3 mps 741 mmHg 61%
    14:00 +13°C° 0 mm 3 mps 741 mmHg 59%
    15:00 +13°C° 0 mm 3 mps 741 mmHg 58%
    16:00 +13°C° 0 mm 3 mps 741 mmHg 56%
    17:00 +11°C° 0 mm 3 mps 741 mmHg 60%
    18:00 +10°C° 0 mm 3 mps 742 mmHg 64%
    19:00 +9°C° 0 mm 2 mps 742 mmHg 68%
    20:00 +8°C° 0 mm 2 mps 742 mmHg 69%
    21:00 +7°C° 0 mm 2 mps 743 mmHg 70%
    22:00 +7°C° 0 mm 2 mps 743 mmHg 71%
    23:00 +6°C° 0 mm 2 mps 743 mmHg 72%
    Show more